Location: Gymnasium_Grossenhain
(51.3000°N, 13.5950°E)
Time: 10:03:56
(UTC+01:00)

BlueWalker 3 - Pass Details

Date: 07 October 2024
Orbit: 470 x 481 km, 53.2° (Epoch: 11 November)

Event Time Altitude Azimuth Distance (km) Brightness Sun altitude
Exits shadow 04:31:50 13° 134° (SE) 1,466 4.5 -25.9°
Maximum altitude 04:31:52 13° 133° (SE) 1,466 4.5 -25.9°
Drops below altitude 10° 04:33:32 10° 106° (ESE) 1,630 5.1 -25.7°
Sets 04:36:40 0° 77° (ENE) 2,513 6.8 -25.2°
